Blue Bell, PA

10:13 AM EDT on July 23, 2016 (GMT -0400)
Philadelphia Wings Airport

Weather History for KLOM - November, 2012

Change the Weather History Date:

Monday, November 12, 2012

  Actual Average (KPNE) Record (KPNE)
Temperature  
Mean Temperature 53 °F -  
Max Temperature 69 °F 52 °F 69 °F (2012)
Min Temperature 37 °F 35 °F 28 °F (2001)
Degree Days  
Heating Degree Days 12    
Growing Degree Days 3 (Base 50)    
Moisture  
Dew Point 50 °F    
Average Humidity 81    
Maximum Humidity 100    
Minimum Humidity 56    
Precipitation  
Precipitation 0.00 in - - ()
Sea Level Pressure  
Sea Level Pressure 30.33 in    
Wind  
Wind Speed 4 mph (South)    
Max Wind Speed 13 mph    
Max Gust Speed 20 mph    
Visibility 8 miles    
Events      
Averages and records for this station are not official NWS values.
T = Trace of Precipitation, MM = Missing Value Source: NWS Daily Summary

Daily Weather History Graph

Daily Weather History Graph

Search for Another Location

Airport or City:

Trip Planner

Search our weather history database for the weather conditions in past years. The results will help you decide how hot, cold, wet, or windy it might be!

Date:

Astronomy

Nov. 12, 2012 Rise Set
Actual Time 6:43 AM EST 4:46 PM EST
Civil Twilight 6:14 AM EST 5:15 PM EST
Nautical Twilight 5:42 AM EST 5:48 PM EST
Astronomical Twilight 5:10 AM EST 6:20 PM EST
Moon 5:06 AM EST (11/12) 3:49 PM EST (11/12)
Length of Visible Light 11h 00m
Length of Day
10h 02m
Waning Crescent, 2% of the Moon is Illuminated
Nov 12
Waning Crescent
Nov 13
New
Nov 20
First Quarter
Nov 28
Full
Dec 6
Last Quarter

Hourly Weather History & Observations

Time (EST) Temp. Windchill Dew Point Humidity Pressure Visibility Wind Dir Wind Speed Gust Speed Precip Events Conditions
12:15 AM 51.8 °F - 41.0 °F 67% 30.44 in 10.0 mi SSE 3.5 mph - N/A   Clear
12:35 AM 46.4 °F 45.2 °F 41.0 °F 81% 30.44 in 10.0 mi SSE 3.5 mph - N/A   Clear
12:55 AM 44.6 °F - 41.0 °F 87% 30.44 in 10.0 mi Calm Calm - N/A   Clear
1:15 AM 42.8 °F - 39.2 °F 87% 30.44 in 10.0 mi Calm Calm - N/A   Clear
1:55 AM 41.0 °F - 39.2 °F 93% 30.44 in 10.0 mi Calm Calm - N/A   Clear
2:15 AM 41.0 °F - 39.2 °F 93% 30.44 in 10.0 mi Calm Calm - N/A   Clear
2:55 AM 39.2 °F - 37.4 °F 93% 30.43 in 7.0 mi Calm Calm - N/A   Clear
3:15 AM 39.2 °F - 37.4 °F 93% 30.43 in 7.0 mi Calm Calm - N/A   Clear
3:35 AM 39.2 °F - 37.4 °F 93% 30.42 in 5.0 mi Calm Calm - N/A   Clear
3:55 AM 37.4 °F - 37.4 °F 100% 30.42 in 5.0 mi Calm Calm - N/A   Clear
4:15 AM 37.4 °F - 37.4 °F 100% 30.42 in 5.0 mi Calm Calm - N/A   Clear
4:35 AM 39.2 °F - 37.4 °F 93% 30.42 in 4.0 mi Calm Calm - N/A   Clear
4:55 AM 37.4 °F - 37.4 °F 100% 30.42 in 4.0 mi Calm Calm - N/A   Clear
5:15 AM 39.2 °F - 37.4 °F 93% 30.43 in 3.0 mi Calm Calm - N/A   Unknown
5:35 AM 37.4 °F - 37.4 °F 100% 30.42 in 2.5 mi Calm Calm - N/A   Unknown
5:55 AM 37.4 °F - 37.4 °F 100% 30.43 in 2.5 mi Calm Calm - N/A   Unknown
6:15 AM 37.4 °F - 37.4 °F 100% 30.43 in 3.0 mi Calm Calm - N/A   Unknown
6:35 AM 37.4 °F - 35.6 °F 93% 30.42 in 4.0 mi Calm Calm - N/A   Clear
6:55 AM 37.4 °F - 37.4 °F 100% 30.43 in 2.0 mi Calm Calm - N/A   Unknown
7:15 AM 37.4 °F - 37.4 °F 100% 30.43 in 2.5 mi Calm Calm - N/A   Unknown
7:35 AM 41.0 °F - 39.2 °F 93% 30.43 in 2.5 mi Calm Calm - N/A   Unknown
7:55 AM 42.8 °F - 42.8 °F 100% 30.43 in 2.5 mi Calm Calm - N/A   Unknown
8:15 AM 46.4 °F - 46.4 °F 100% 30.43 in 4.0 mi Calm Calm - N/A   Clear
8:35 AM 53.6 °F - 50.0 °F 88% 30.43 in 5.0 mi South 3.5 mph - N/A   Clear
8:55 AM 55.4 °F - 51.8 °F 88% 30.42 in 5.0 mi South 3.5 mph - N/A   Clear
9:15 AM 59.0 °F - 51.8 °F 77% 30.42 in 7.0 mi South 5.8 mph - N/A   Clear
9:35 AM 60.8 °F - 53.6 °F 77% 30.41 in 7.0 mi SSW 4.6 mph - N/A   Clear
9:55 AM 62.6 °F - 53.6 °F 72% 30.40 in 10.0 mi SSW 5.8 mph - N/A   Clear
10:15 AM 62.6 °F - 55.4 °F 77% 30.40 in 10.0 mi South 5.8 mph - N/A   Clear
10:35 AM 64.4 °F - 55.4 °F 73% 30.39 in 10.0 mi South 8.1 mph - N/A   Clear
10:55 AM 64.4 °F - 55.4 °F 73% 30.39 in 10.0 mi South 9.2 mph - N/A   Clear
11:15 AM 66.2 °F - 55.4 °F 68% 30.38 in 10.0 mi South 9.2 mph - N/A   Clear
11:35 AM 66.2 °F - 55.4 °F 68% 30.37 in 10.0 mi South 9.2 mph - N/A   Scattered Clouds
11:55 AM 68.0 °F - 55.4 °F 64% 30.36 in 10.0 mi SSW 9.2 mph - N/A   Scattered Clouds
12:15 PM 68.0 °F - 55.4 °F 64% 30.35 in 10.0 mi South 5.8 mph - N/A   Scattered Clouds
12:35 PM 68.0 °F - 55.4 °F 64% 30.34 in 10.0 mi SSW 11.5 mph - N/A   Scattered Clouds
12:55 PM 68.0 °F - 55.4 °F 64% 30.34 in 10.0 mi SSW 8.1 mph 16.1 mph N/A   Scattered Clouds
1:15 PM 69.8 °F - 55.4 °F 60% 30.33 in 10.0 mi SSW 10.4 mph 18.4 mph N/A   Mostly Cloudy
1:35 PM 68.0 °F - 55.4 °F 64% 30.32 in 10.0 mi South 8.1 mph - N/A   Mostly Cloudy
1:55 PM 68.0 °F - 53.6 °F 60% 30.31 in 10.0 mi South 10.4 mph - N/A   Scattered Clouds
2:15 PM 69.8 °F - 53.6 °F 56% 30.29 in 10.0 mi South 9.2 mph - N/A   Scattered Clouds
2:35 PM 69.8 °F - 53.6 °F 56% 30.28 in 10.0 mi South 9.2 mph - N/A   Mostly Cloudy
2:55 PM 68.0 °F - 53.6 °F 60% 30.28 in 10.0 mi South 10.4 mph 17.3 mph N/A   Mostly Cloudy
3:15 PM 68.0 °F - 53.6 °F 60% 30.27 in 10.0 mi South 8.1 mph - N/A   Mostly Cloudy
3:35 PM 68.0 °F - 53.6 °F 60% 30.26 in 10.0 mi SSE 9.2 mph 16.1 mph N/A   Scattered Clouds
3:55 PM 68.0 °F - 55.4 °F 64% 30.26 in 10.0 mi South 8.1 mph - N/A   Scattered Clouds
4:15 PM 68.0 °F - 55.4 °F 64% 30.25 in 10.0 mi SSE 6.9 mph - N/A   Scattered Clouds
4:35 PM 66.2 °F - 53.6 °F 64% 30.24 in 10.0 mi SSE 6.9 mph - N/A   Clear
5:35 PM 64.4 °F - 55.4 °F 73% 30.23 in 10.0 mi SSE 8.1 mph 16.1 mph N/A   Clear
5:55 PM 64.4 °F - 55.4 °F 73% 30.23 in 10.0 mi South 10.4 mph 19.6 mph N/A   Clear
6:15 PM 64.4 °F - 55.4 °F 73% 30.23 in 10.0 mi South 8.1 mph - N/A   Clear
6:35 PM 62.6 °F - 55.4 °F 77% 30.24 in 10.0 mi South 9.2 mph 16.1 mph N/A   Clear
6:55 PM 62.6 °F - 55.4 °F 77% 30.23 in 10.0 mi SSE 12.7 mph 19.6 mph N/A   Clear
7:15 PM 62.6 °F - 55.4 °F 77% 30.24 in 10.0 mi South 9.2 mph - N/A   Mostly Cloudy
7:55 PM 62.6 °F - 57.2 °F 82% 30.23 in 10.0 mi South 10.4 mph - N/A   Mostly Cloudy
8:15 PM 62.6 °F - 57.2 °F 82% 30.23 in 10.0 mi South 8.1 mph 18.4 mph N/A   Scattered Clouds
8:35 PM 62.6 °F - 57.2 °F 82% 30.21 in 10.0 mi SSE 6.9 mph - N/A   Scattered Clouds
8:55 PM 62.6 °F - 59.0 °F 88% 30.20 in 10.0 mi South 6.9 mph 16.1 mph N/A   Clear
9:35 PM 60.8 °F - 59.0 °F 94% 30.20 in 10.0 mi South 6.9 mph - N/A   Mostly Cloudy
9:55 PM 60.8 °F - 59.0 °F 94% 30.19 in 10.0 mi SSE 8.1 mph - N/A   Scattered Clouds
10:15 PM 60.8 °F - 59.0 °F 94% 30.19 in 10.0 mi South 5.8 mph - N/A   Scattered Clouds
10:35 PM 62.6 °F - 59.0 °F 88% 30.18 in 10.0 mi South 6.9 mph - N/A   Scattered Clouds
10:55 PM 62.6 °F - 59.0 °F 88% 30.16 in 10.0 mi South 9.2 mph - N/A   Mostly Cloudy
11:15 PM 62.6 °F - 59.0 °F 88% 30.16 in 10.0 mi South 5.8 mph 16.1 mph N/A   Mostly Cloudy
11:35 PM 62.6 °F - 59.0 °F 88% 30.16 in 10.0 mi South 9.2 mph - N/A   Overcast
11:55 PM 62.6 °F - 59.0 °F 88% 30.16 in 10.0 mi South 9.2 mph - N/A   Overcast